Tracking 30970 objects as of 3-Jul-2025
HD Live streaming from Space Station
objects crossing your sky now

STARLINK-5215

Track STARLINK-5215 now!
10-day predictions
STARLINK-5215 is classified as:


NORAD ID: 54759
Int'l Code: 2022-175B
Perigee: 545.9 km
Apogee: 547.9 km
Inclination: 53.2 °
Period: 95.4 minutes
Semi major axis: 6917 km
RCS: Unknown
Launch date: December 17, 2022
Source: United States (US)
Launch site: AIR FORCE EASTERN TEST RANGE (AFETR)
Your satellite tracking list
Your tracking list is empty




NASA's NSSDC Master Catalog

Two Line Element Set (TLE):
1 54759U 22175B   25183.94916829 -.00000373  00000-0 -53534-5 0  9994
2 54759  53.2185  80.4775 0001426  94.7752 265.3403 15.08835239142288
Source of the keplerian elements: AFSPC